Palma de Mallorca, Spain

3:04 PM CEST on September 21, 2017 (GMT +0200)
Palma De Mallorca

Weather History for LEPA - October, 2011

Change the Weather History Date:

Sunday, October 16, 2011

  Actual Average Record
Temperature  
Mean Temperature 61 °F -  
Max Temperature 75 °F 68 °F 86 °F (2013)
Min Temperature 47 °F 50 °F 48 °F (2004)
Degree Days  
Heating Degree Days 4    
Growing Degree Days 11 (Base 50)    
Moisture  
Dew Point 51 °F    
Average Humidity 71    
Maximum Humidity 100    
Minimum Humidity 33    
Precipitation  
Precipitation 0.00 in 0.07 in - ()
Sea Level Pressure  
Sea Level Pressure 30.23 in    
Wind  
Wind Speed 2 mph ()    
Max Wind Speed 9 mph    
Max Gust Speed -    
Visibility 6.8 miles    
Events      
Averages and records for this station are not official NWS values.
T = Trace of Precipitation, MM = Missing Value Source: Averaged Metar Reports

Daily Weather History Graph

Daily Weather History Graph

Search for Another Location

Airport or City:

Trip Planner

Search our weather history database for the weather conditions in past years. The results will help you decide how hot, cold, wet, or windy it might be!

Date:

Astronomy

Oct. 16, 2011 Rise Set
Actual Time 7:59 AM CEST 7:09 PM CEST
Civil Twilight 7:32 AM CEST 7:36 PM CEST
Nautical Twilight 7:01 AM CEST 8:07 PM CEST
Astronomical Twilight 6:30 AM CEST 8:38 PM CEST
Moon 9:43 PM CEST (10/16) 12:02 PM CEST (10/16)
Length of Visible Light 12h 03m
Length of Day
11h 09m
Waning Gibbous, 84% of the Moon is Illuminated
Oct 16
Waning Gibbous
Oct 20
Last Quarter
Oct 26
New
Nov 2
First Quarter
Nov 10
Full

Hourly Weather History & Observations

Time (CEST) Temp. Dew Point Humidity Pressure Visibility Wind Dir Wind Speed Gust Speed Precip Events Conditions
12:00 AM 59.0 °F 51.8 °F 77% 30.21 in 6.2 mi Calm Calm - N/A   Partly Cloudy
12:30 AM 57.2 °F 51.8 °F 82% 30.21 in 6.2 mi Calm Calm - N/A   Partly Cloudy
1:00 AM 55.4 °F 51.8 °F 88% 30.21 in 6.2 mi NNE 1.2 mph - N/A   Partly Cloudy
1:30 AM 53.6 °F 50.0 °F 88% 30.21 in 6.2 mi Variable 2.3 mph - N/A   Partly Cloudy
2:00 AM 53 °F 51 °F 90% 30.23 in 11 mi Calm Calm - -   Scattered Clouds
2:00 AM 53.6 °F 50.0 °F 88% 30.21 in 6.2 mi Variable 2.3 mph - N/A   Partly Cloudy
2:30 AM 53.6 °F 50.0 °F 88% 30.21 in 6.2 mi North 2.3 mph - N/A   Partly Cloudy
3:00 AM 53.6 °F 50.0 °F 88% 30.21 in 6.2 mi Variable 1.2 mph - N/A   Partly Cloudy
3:30 AM 51.8 °F 50.0 °F 94% 30.21 in 6.2 mi North 3.5 mph - N/A   Partly Cloudy
4:00 AM 53.6 °F 51.8 °F 94% 30.21 in 6.2 mi North 2.3 mph - N/A   Partly Cloudy
4:30 AM 51.8 °F 50.0 °F 94% 30.21 in 6.2 mi NNE 2.3 mph - N/A   Partly Cloudy
5:00 AM 51.8 °F 50.0 °F 94% 30.21 in 6.2 mi Calm Calm - N/A   Partly Cloudy
5:30 AM 51.8 °F 50.0 °F 94% 30.21 in 6.2 mi Calm Calm - N/A   Partly Cloudy
6:00 AM 51.8 °F 50.0 °F 94% 30.21 in 6.2 mi Variable 1.2 mph - N/A   Partly Cloudy
6:30 AM 50.0 °F 48.2 °F 94% 30.24 in 6.2 mi North 1.2 mph - N/A   Partly Cloudy
7:00 AM 50.0 °F 48.2 °F 94% 30.24 in 6.2 mi Variable 1.2 mph - N/A   Partly Cloudy
7:30 AM 48.2 °F 48.2 °F 100% 30.24 in 6.2 mi ENE 2.3 mph - N/A   Partly Cloudy
8:00 AM 49 °F 48 °F 95% 30.24 in 12 mi ENE 1.2 mph - -   Scattered Clouds
8:00 AM 50.0 °F 48.2 °F 94% 30.24 in 6.2 mi Calm Calm - N/A   Partly Cloudy
8:30 AM 50.0 °F 48.2 °F 94% 30.24 in 6.2 mi Calm Calm - N/A   Partly Cloudy
9:00 AM 53.6 °F 51.8 °F 94% 30.24 in 6.2 mi Calm Calm - N/A   Partly Cloudy
9:30 AM 57.2 °F 53.6 °F 88% 30.24 in 6.2 mi Calm Calm - N/A   Partly Cloudy
10:00 AM 60.8 °F 55.4 °F 82% 30.24 in 6.2 mi Calm Calm - N/A   Partly Cloudy
10:30 AM 64.4 °F 53.6 °F 68% 30.24 in 6.2 mi Calm Calm - N/A   Partly Cloudy
11:00 AM 68.0 °F 53.6 °F 60% 30.27 in 6.2 mi Calm Calm - N/A   Partly Cloudy
11:30 AM 69.8 °F 53.6 °F 56% 30.27 in 6.2 mi Calm Calm - N/A   Scattered Clouds
12:00 PM 71.6 °F 51.8 °F 50% 30.27 in 6.2 mi East 4.6 mph - N/A   Mostly Cloudy
12:30 PM 71.6 °F 51.8 °F 50% 30.27 in 6.2 mi ENE 6.9 mph - N/A   Scattered Clouds
1:00 PM 71.6 °F 50.0 °F 46% 30.24 in 6.2 mi ENE 6.9 mph - N/A   Scattered Clouds
1:30 PM 73.4 °F 50.0 °F 44% 30.24 in 6.2 mi East 5.8 mph - N/A   Scattered Clouds
2:00 PM 74 °F 51 °F 33% 30.24 in 19 mi NNE 4.6 mph - -   Mostly Cloudy
2:00 PM 73.4 °F 50.0 °F 44% 30.24 in 6.2 mi ENE 6.9 mph - N/A   Scattered Clouds
2:30 PM 73.4 °F 50.0 °F 44% 30.21 in 6.2 mi ENE 5.8 mph - N/A   Scattered Clouds
3:00 PM 75.2 °F 50.0 °F 41% 30.21 in 6.2 mi NE 9.2 mph - N/A   Scattered Clouds
3:30 PM 75.2 °F 50.0 °F 41% 30.21 in 6.2 mi East 4.6 mph - N/A   Scattered Clouds
4:00 PM 73.4 °F 48.2 °F 41% 30.21 in 6.2 mi NE 3.5 mph - N/A   Scattered Clouds
4:30 PM 73.4 °F 53.6 °F 50% 30.21 in 6.2 mi Variable 2.3 mph - N/A   Scattered Clouds
5:00 PM 73.4 °F 53.6 °F 50% 30.21 in 6.2 mi SSW 5.8 mph - N/A   Scattered Clouds
5:30 PM 73.4 °F 53.6 °F 50% 30.21 in 6.2 mi ESE 4.6 mph - N/A   Scattered Clouds
6:00 PM 73.4 °F 55.4 °F 53% 30.21 in 6.2 mi SSE 3.5 mph - N/A   Scattered Clouds
6:30 PM 71.6 °F 55.4 °F 57% 30.21 in 6.2 mi Calm Calm - N/A   Partly Cloudy
7:00 PM 69.8 °F 50.0 °F 49% 30.21 in 6.2 mi Variable 2.3 mph - N/A   Partly Cloudy
7:30 PM 66.2 °F 51.8 °F 60% 30.24 in 6.2 mi Variable 2.3 mph - N/A   Partly Cloudy
8:00 PM 65 °F 52 °F 53% 30.25 in 12 mi East 3.5 mph - -   Scattered Clouds
8:00 PM 64.4 °F 51.8 °F 64% 30.24 in 6.2 mi East 4.6 mph - N/A   Partly Cloudy
8:30 PM 62.6 °F 51.8 °F 68% 30.24 in 6.2 mi Variable 2.3 mph - N/A   Partly Cloudy
9:00 PM 60.8 °F 51.8 °F 72% 30.24 in 6.2 mi ENE 4.6 mph - N/A   Partly Cloudy
9:30 PM 59.0 °F 51.8 °F 77% 30.24 in 6.2 mi NE 6.9 mph - N/A   Partly Cloudy
10:00 PM 59.0 °F 51.8 °F 77% 30.24 in 6.2 mi Variable 2.3 mph - N/A   Partly Cloudy
10:30 PM 60.8 °F 51.8 °F 72% 30.27 in 6.2 mi Variable 1.2 mph - N/A   Partly Cloudy
11:00 PM 57.2 °F 50.0 °F 77% 30.27 in 6.2 mi ENE 1.2 mph - N/A   Partly Cloudy
11:30 PM 57.2 °F 51.8 °F 82% 30.27 in - Calm Calm - N/A   Clear